| time (UTC) | temp C | wind direction | speed KPH | gust KPH | rain 1hr cm | rain 24hr cm | rain mn cm | humidity % | barometer mb |
| 20260902123209 | 19 | 199 | 22.5 | 38.6 | 0.00 | 0.10 | 0.03 | 74 | 1012.5 |
| 20260902122708 | 19 | 231 | 16.1 | 27.4 | 0.00 | 0.10 | 0.03 | 75 | 1012.5 |
| 20260902121208 | 19 | 234 | 19.3 | 27.4 | 0.00 | 0.10 | 0.03 | 76 | 1012.7 |
| 20260902120207 | 19 | 206 | 19.3 | 32.2 | 0.00 | 0.10 | 0.03 | 77 | 1012.8 |
| 20260902115708 | 19 | 197 | 19.3 | 37.0 | 0.00 | 0.10 | 0.03 | 76 | 1012.8 |
| 20260902115208 | 19 | 230 | 14.5 | 29.0 | 0.00 | 0.10 | 0.03 | 75 | 1012.7 |
| 20260902114208 | 19 | 218 | 16.1 | 29.0 | 0.00 | 0.10 | 0.03 | 75 | 1012.8 |
| 20260902113208 | 19 | 223 | 22.5 | 37.0 | 0.00 | 0.10 | 0.03 | 74 | 1012.9 |
| 20260902110708 | 20 | 229 | 22.5 | 33.8 | 0.00 | 0.10 | 0.03 | 72 | 1012.9 |
| 20260902110207 | 20 | 254 | 16.1 | 35.4 | 0.00 | 0.10 | 0.03 | 71 | 1012.9 |
| 20260902104207 | 20 | 212 | 16.1 | 37.0 | 0.00 | 0.10 | 0.03 | 72 | 1013.0 |
| 20260902102209 | 20 | 274 | 8.0 | 33.8 | 0.00 | 0.10 | 0.03 | 75 | 1012.9 |
| 20260902101707 | 20 | 226 | 17.7 | 35.4 | 0.00 | 0.10 | 0.03 | 74 | 1012.9 |
| 20260902095707 | 19 | 233 | 14.5 | 29.0 | 0.00 | 0.10 | 0.03 | 76 | 1012.8 |
| 20260902094709 | 19 | 249 | 22.5 | 35.4 | 0.00 | 0.10 | 0.03 | 76 | 1012.8 |
| 20260902094206 | 19 | 245 | 17.7 | 27.4 | 0.00 | 0.10 | 0.03 | 74 | 1012.9 |
| 20260902093706 | 19 | 249 | 22.5 | 32.2 | 0.00 | 0.10 | 0.03 | 75 | 1012.9 |
| 20260902093206 | 19 | 249 | 16.1 | 38.6 | 0.00 | 0.10 | 0.03 | 77 | 1012.9 |
| 20260902092706 | 19 | 215 | 27.4 | 37.0 | 0.00 | 0.10 | 0.03 | 77 | 1012.8 |
| 20260902092206 | 18 | 254 | 14.5 | 29.0 | 0.00 | 0.10 | 0.03 | 78 | 1012.9 |
| 20260902091206 | 18 | 231 | 14.5 | 22.5 | 0.00 | 0.10 | 0.03 | 78 | 1012.8 |
| 20260902085707 | 18 | 214 | 8.0 | 24.1 | 0.00 | 0.10 | 0.03 | 81 | 1013.0 |
| 20260902085207 | 18 | 215 | 16.1 | 32.2 | 0.00 | 0.10 | 0.03 | 80 | 1013.0 |
| 20260902083206 | 18 | 234 | 20.9 | 29.0 | 0.00 | 0.13 | 0.03 | 83 | 1013.0 |
| 20260902081207 | 17 | 234 | 16.1 | 32.2 | 0.00 | 0.13 | 0.03 | 85 | 1013.0 |
| 20260902080208 | 17 | 210 | 16.1 | 27.4 | 0.00 | 0.13 | 0.03 | 85 | 1013.0 |
| 20260902075207 | 17 | 223 | 19.3 | 33.8 | 0.00 | 0.13 | 0.03 | 86 | 1012.9 |
| 20260902074706 | 17 | 206 | 22.5 | 32.2 | 0.00 | 0.13 | 0.03 | 87 | 1012.9 |
| 20260902074207 | 17 | 201 | 16.1 | 32.2 | 0.00 | 0.13 | 0.03 | 88 | 1012.9 |
| 20260902073707 | 17 | 189 | 17.7 | 33.8 | 0.00 | 0.13 | 0.03 | 88 | 1012.9 |
| 20260902073207 | 16 | 250 | 11.3 | 20.9 | 0.00 | 0.13 | 0.03 | 89 | 1012.9 |
| 20260902072706 | 16 | 191 | 16.1 | 32.2 | 0.00 | 0.13 | 0.03 | 89 | 1012.9 |
| 20260902071707 | 16 | 195 | 12.9 | 24.1 | 0.00 | 0.13 | 0.03 | 90 | 1012.7 |
| 20260902065706 | 15 | 210 | 14.5 | 29.0 | 0.00 | 0.13 | 0.03 | 91 | 1012.7 |
| 20260902065207 | 15 | 210 | 14.5 | 22.5 | 0.00 | 0.13 | 0.03 | 91 | 1012.7 |
| 20260902064706 | 15 | 217 | 11.3 | 22.5 | 0.00 | 0.13 | 0.03 | 91 | 1012.7 |
| 20260902061707 | 15 | 223 | 14.5 | 25.7 | 0.00 | 0.15 | 0.03 | 92 | 1012.7 |
| 20260902060206 | 14 | 199 | 14.5 | 25.7 | 0.00 | 0.15 | 0.03 | 92 | 1012.7 |
| 20260902055207 | 14 | 204 | 9.7 | 22.5 | 0.00 | 0.15 | 0.03 | 92 | 1012.7 |
| 20260902054706 | 14 | 201 | 16.1 | 24.1 | 0.00 | 0.15 | 0.03 | 92 | 1012.7 |
| 20260902053206 | 14 | 183 | 11.3 | 24.1 | 0.00 | 0.15 | 0.03 | 92 | 1012.7 |
| 20260902052705 | 14 | 190 | 9.7 | 22.5 | 0.00 | 0.15 | 0.03 | 92 | 1012.7 |
| 20260902052206 | 14 | 197 | 9.7 | 20.9 | 0.00 | 0.15 | 0.03 | 92 | 1012.7 |
| 20260902051706 | 14 | 194 | 9.7 | 20.9 | 0.00 | 0.15 | 0.03 | 92 | 1012.7 |
| 20260902051205 | 14 | 182 | 9.7 | 22.5 | 0.00 | 0.15 | 0.03 | 92 | 1012.7 |
| 20260902050707 | 13 | 193 | 11.3 | 14.5 | 0.00 | 0.15 | 0.03 | 92 | 1012.6 |
| 20260902045205 | 13 | 229 | 8.0 | 20.9 | 0.00 | 0.15 | 0.03 | 92 | 1012.7 |
| 20260902043707 | 13 | 186 | 8.0 | 12.9 | 0.00 | 0.15 | 0.03 | 91 | 1012.7 |
| 20260902041705 | 13 | 168 | 9.7 | 20.9 | 0.00 | 0.15 | 0.03 | 91 | 1012.8 |
| 20260902040707 | 13 | 185 | 9.7 | 12.9 | 0.00 | 0.15 | 0.03 | 91 | 1012.7 |
| 20260902040206 | 13 | 159 | 9.7 | 16.1 | 0.00 | 0.15 | 0.03 | 91 | 1012.8 |
| 20260902035705 | 13 | 184 | 9.7 | 20.9 | 0.00 | 0.15 | 0.03 | 91 | 1012.8 |
| 20260902034707 | 12 | 172 | 9.7 | 16.1 | 0.00 | 0.15 | 0.03 | 91 | 1012.8 |
| 20260902033706 | 12 | 168 | 8.0 | 12.9 | 0.00 | 0.15 | 0.03 | 91 | 1012.8 |
| 20260902032208 | 12 | 181 | 8.0 | 11.3 | 0.00 | 0.15 | 0.03 | 91 | 1013.0 |
| 20260902031708 | 12 | 201 | 8.0 | 11.3 | 0.03 | 0.15 | 0.03 | 91 | 1013.0 |
| 20260902031206 | 12 | 186 | 4.8 | 9.7 | 0.03 | 0.15 | 0.03 | 91 | 1012.9 |
| 20260902030706 | 12 | 190 | 9.7 | 12.9 | 0.03 | 0.15 | 0.03 | 91 | 1012.9 |
| 20260902024706 | 12 | 176 | 4.8 | 9.7 | 0.03 | 0.15 | 0.03 | 90 | 1012.9 |
| 20260902024208 | 12 | 176 | 8.0 | 9.7 | 0.03 | 0.15 | 0.03 | 90 | 1013.0 |
| 20260902023208 | 12 | 166 | 4.8 | 9.7 | 0.03 | 0.15 | 0.03 | 90 | 1012.9 |
| 20260902022706 | 12 | 156 | 3.2 | 8.0 | 0.03 | 0.15 | 0.03 | 90 | 1012.9 |
| 20260902022208 | 12 | 171 | 4.8 | 9.7 | 0.03 | 0.15 | 0.03 | 90 | 1012.9 |
| 20260902020706 | 12 | 174 | 6.4 | 11.3 | 0.00 | 0.13 | 0.00 | 90 | 1012.9 |
| 20260902020207 | 12 | 198 | 4.8 | 11.3 | 0.00 | 0.13 | 0.00 | 90 | 1012.9 |
| 20260902015707 | 12 | 174 | 4.8 | 9.7 | 0.00 | 0.13 | 0.00 | 90 | 1012.9 |
| 20260902015205 | 12 | 174 | 6.4 | 8.0 | 0.00 | 0.13 | 0.00 | 90 | 1012.8 |
| 20260902014705 | 12 | 175 | 3.2 | 8.0 | 0.00 | 0.13 | 0.00 | 90 | 1012.9 |
| 20260902014206 | 12 | 182 | 4.8 | 11.3 | 0.00 | 0.13 | 0.00 | 90 | 1012.9 |
| 20260902013206 | 12 | 201 | 6.4 | 11.3 | 0.00 | 0.13 | 0.00 | 90 | 1012.8 |
| 20260902012206 | 12 | 183 | 6.4 | 9.7 | 0.00 | 0.13 | 0.00 | 89 | 1012.8 |
| 20260902011707 | 12 | 195 | 3.2 | 8.0 | 0.00 | 0.13 | 0.00 | 89 | 1012.8 |
| 20260902011206 | 12 | 202 | 3.2 | 9.7 | 0.00 | 0.13 | 0.00 | 89 | 1012.8 |
| 20260902010706 | 12 | 219 | 3.2 | 9.7 | 0.00 | 0.13 | 0.00 | 89 | 1012.8 |
| 20260902005205 | 12 | 189 | 3.2 | 4.8 | 0.00 | 0.13 | 0.00 | 89 | 1013.0 |
| 20260902004705 | 12 | 211 | 4.8 | 8.0 | 0.00 | 0.13 | 0.00 | 89 | 1013.0 |
| 20260902002705 | 12 | 247 | 8.0 | 11.3 | 0.00 | 0.13 | 0.00 | 89 | 1013.0 |
| 20260902002205 | 12 | 237 | 8.0 | 9.7 | 0.00 | 0.13 | 0.00 | 88 | 1013.0 |
| 20260902001706 | 12 | 225 | 6.4 | 9.7 | 0.00 | 0.13 | 0.00 | 88 | 1013.1 |
| 20260901235705 | 13 | 249 | 3.2 | 9.7 | 0.00 | 0.13 | 0.00 | 88 | 1013.1 |
| 20260901233705 | 13 | 233 | 4.8 | 9.7 | 0.00 | 0.13 | 0.00 | 88 | 1013.2 |
| 20260901233207 | 13 | 266 | 3.2 | 8.0 | 0.00 | 0.13 | 0.00 | 87 | 1013.3 |
| 20260901231706 | 13 | 267 | 8.0 | 22.5 | 0.00 | 0.13 | 0.00 | 88 | 1013.3 |
| 20260901225706 | 14 | 269 | 9.7 | 20.9 | 0.00 | 0.13 | 0.00 | 88 | 1013.1 |
| 20260901224206 | 14 | 265 | 9.7 | 27.4 | 0.00 | 0.15 | 0.00 | 89 | 1013.0 |
| 20260901223705 | 14 | 267 | 14.5 | 22.5 | 0.00 | 0.15 | 0.00 | 89 | 1013.0 |
| 20260901222705 | 14 | 277 | 11.3 | 22.5 | 0.00 | 0.15 | 0.00 | 89 | 1012.9 |
| 20260901220706 | 14 | 236 | 4.8 | 11.3 | 0.00 | 0.15 | 0.00 | 89 | 1012.8 |
| 20260901215705 | 14 | 238 | 3.2 | 8.0 | 0.00 | 0.15 | 0.15 | 89 | 1012.8 |
| 20260901215206 | 14 | 252 | 1.6 | 9.7 | 0.00 | 0.15 | 0.15 | 89 | 1012.8 |
| 20260901211705 | 15 | 270 | 3.2 | 9.7 | 0.00 | 0.15 | 0.15 | 89 | 1012.7 |
| 20260901211205 | 15 | 244 | 6.4 | 8.0 | 0.00 | 0.15 | 0.15 | 89 | 1012.6 |
| 20260901210206 | 15 | 233 | 4.8 | 8.0 | 0.00 | 0.15 | 0.15 | 89 | 1012.5 |
| 20260901205205 | 15 | 244 | 4.8 | 8.0 | 0.00 | 0.15 | 0.15 | 89 | 1012.5 |
| 20260901204706 | 15 | 264 | 3.2 | 12.9 | 0.00 | 0.15 | 0.15 | 89 | 1012.5 |
| 20260901204205 | 15 | 244 | 8.0 | 14.5 | 0.00 | 0.15 | 0.15 | 89 | 1012.4 |
| 20260901203706 | 15 | 245 | 4.8 | 8.0 | 0.00 | 0.15 | 0.15 | 89 | 1012.4 |
| 20260901200705 | 15 | 246 | 8.0 | 12.9 | 0.08 | 0.18 | 0.15 | 88 | 1012.2 |
| 20260901200207 | 15 | 249 | 8.0 | 14.5 | 0.08 | 0.18 | 0.15 | 88 | 1012.2 |
| 20260901194705 | 15 | 232 | 6.4 | 9.7 | 0.08 | 0.23 | 0.15 | 87 | 1012.1 |
| 20260901194205 | 15 | 241 | 3.2 | 9.7 | 0.08 | 0.23 | 0.15 | 87 | 1012.1 |
| 20260901193206 | 16 | 253 | 8.0 | 11.3 | 0.08 | 0.23 | 0.15 | 86 | 1012.0 |
| 20260901192706 | 16 | 251 | 6.4 | 11.3 | 0.08 | 0.23 | 0.15 | 86 | 1012.0 |
| 20260901191705 | 16 | 260 | 9.7 | 16.1 | 0.08 | 0.23 | 0.15 | 85 | 1012.0 |
| 20260901190205 | 16 | 263 | 4.8 | 9.7 | 0.00 | 0.13 | 0.08 | 84 | 1011.8 |
| 20260901185705 | 16 | 275 | 4.8 | 11.3 | 0.00 | 0.13 | 0.08 | 83 | 1011.8 |
| 20260901184205 | 16 | 262 | 6.4 | 11.3 | 0.00 | 0.13 | 0.08 | 82 | 1011.5 |
| 20260901183206 | 16 | 274 | 4.8 | 11.3 | 0.00 | 0.13 | 0.08 | 80 | 1011.5 |
| 20260901182705 | 17 | 268 | 9.7 | 12.9 | 0.00 | 0.13 | 0.08 | 80 | 1011.5 |
| 20260901182205 | 17 | 270 | 8.0 | 11.3 | 0.00 | 0.13 | 0.08 | 79 | 1011.5 |
| 20260901180205 | 17 | 243 | 9.7 | 12.9 | 0.00 | 0.13 | 0.08 | 77 | 1011.4 |
| 20260901173706 | 18 | 267 | 17.7 | 24.1 | 0.00 | 0.13 | 0.08 | 75 | 1011.0 |
| 20260901164207 | 20 | 300 | 8.0 | 20.9 | 0.00 | 0.13 | 0.08 | 73 | 1010.7 |
| 20260901163705 | 20 | 251 | 11.3 | 22.5 | 0.00 | 0.13 | 0.08 | 72 | 1010.7 |
| 20260901162705 | 20 | 263 | 11.3 | 20.9 | 0.00 | 0.13 | 0.08 | 70 | 1010.7 |
| 20260901162204 | 20 | 256 | 16.1 | 27.4 | 0.00 | 0.13 | 0.08 | 71 | 1010.6 |
| 20260901161205 | 20 | 256 | 11.3 | 25.7 | 0.00 | 0.13 | 0.08 | 73 | 1010.6 |
| 20260901154705 | 20 | 298 | 12.9 | 27.4 | 0.00 | 0.13 | 0.08 | 73 | 1010.6 |
| 20260901153707 | 20 | 267 | 16.1 | 27.4 | 0.00 | 0.15 | 0.08 | 73 | 1010.6 |
| 20260901152208 | 20 | 257 | 16.1 | 25.7 | 0.00 | 0.15 | 0.08 | 74 | 1010.5 |
| 20260901151705 | 20 | 261 | 11.3 | 27.4 | 0.00 | 0.18 | 0.08 | 75 | 1010.4 |
| 20260901151206 | 20 | 270 | 14.5 | 25.7 | 0.00 | 0.25 | 0.08 | 76 | 1010.4 |
| 20260901150705 | 20 | 227 | 20.9 | 37.0 | 0.00 | 0.28 | 0.08 | 77 | 1010.4 |
| 20260901150206 | 19 | 230 | 8.0 | 24.1 | 0.00 | 0.28 | 0.08 | 79 | 1010.5 |
| 20260901145707 | 18 | 231 | 12.9 | 22.5 | 0.00 | 0.28 | 0.08 | 78 | 1010.5 |
| 20260901145206 | 18 | 244 | 11.3 | 16.1 | 0.00 | 0.28 | 0.08 | 78 | 1010.5 |
| 20260901144205 | 19 | 243 | 14.5 | 25.7 | 0.00 | 0.28 | 0.08 | 77 | 1010.5 |
| 20260901142706 | 20 | 239 | 14.5 | 24.1 | 0.00 | 0.28 | 0.08 | 74 | 1010.4 |
| 20260901142205 | 20 | 258 | 11.3 | 22.5 | 0.00 | 0.28 | 0.08 | 73 | 1010.4 |
| 20260901141705 | 20 | 241 | 8.0 | 27.4 | 0.00 | 0.28 | 0.08 | 73 | 1010.3 |
| 20260901141205 | 20 | 252 | 14.5 | 27.4 | 0.00 | 0.28 | 0.08 | 72 | 1010.3 |
| 20260901134707 | 21 | 235 | 16.1 | 32.2 | 0.00 | 0.28 | 0.08 | 69 | 1010.1 |
| 20260901134206 | 21 | 238 | 17.7 | 27.4 | 0.00 | 0.28 | 0.08 | 69 | 1010.1 |
| 20260901133705 | 21 | 258 | 12.9 | 25.7 | 0.00 | 0.28 | 0.08 | 69 | 1010.1 |
| 20260901132706 | 20 | 275 | 12.9 | 25.7 | 0.00 | 0.28 | 0.08 | 72 | 1010.1 |
| 20260901132205 | 20 | 277 | 14.5 | 22.5 | 0.00 | 0.28 | 0.08 | 72 | 1010.1 |
| 20260901131704 | 20 | 285 | 14.5 | 22.5 | 0.00 | 0.28 | 0.08 | 72 | 1010.1 |
| 20260901130707 | 20 | 300 | 16.1 | 27.4 | 0.00 | 0.28 | 0.08 | 71 | 1010.1 |
| 20260901125704 | 20 | 274 | 8.0 | 20.9 | 0.00 | 0.28 | 0.08 | 72 | 1010.0 |
| 20260901125204 | 20 | 287 | 9.7 | 20.9 | 0.00 | 0.28 | 0.08 | 72 | 1010.0 |
| 20260901124707 | 20 | 294 | 17.7 | 24.1 | 0.00 | 0.28 | 0.08 | 72 | 1010.0 |